This is the latest recevied weather packets stored in our database for station/object CQ0XSM-11. If no packets are shown the sender has not sent any weather packets the latest 10 day(s).
| Time | Temp. | Humidity | Pressure | Rain* | Wind** | Luminosity | Snow |
|---|---|---|---|---|---|---|---|
| 1777109860 | 16.11° C | 82% | 996.8 hPa | 0 mm | - | - | - |
| 1777109562 | 16.11° C | 87% | 997.1 hPa | 0 mm | - | - | - |
| 1777109234 | 15.56° C | 90% | 997 hPa | 0 mm | - | - | - |
| 1777108931 | 15.56° C | 90% | 997.1 hPa | 0 mm | - | - | - |
| 1777108628 | 15° C | 91% | 997.1 hPa | 0 mm | - | - | - |
| 1777108334 | 15° C | 95% | 997.1 hPa | 0 mm | - | - | - |
| 1777108017 | 14.44° C | 100% | 997 hPa | 0 mm | - | - | - |
| 1777107722 | 13.89° C | 100% | 997 hPa | 0 mm | - | - | - |
| 1777107415 | 13.89° C | 100% | 997 hPa | 0 mm | - | - | - |
| 1777107122 | 13.89° C | 100% | 997.1 hPa | 0 mm | - | - | - |
| 1777106809 | 13.33° C | 100% | 997.2 hPa | 0 mm | - | - | - |
| 1777106523 | 13.33° C | 100% | 997.2 hPa | 0 mm | - | - | - |
| 1777105937 | 14.44° C | 97% | 997.1 hPa | 0 mm | - | - | - |
| 1777105596 | 14.44° C | 100% | 997.1 hPa | 0 mm | - | - | - |
| 1777105305 | 13.89° C | 100% | 997.2 hPa | 0 mm | - | - | - |
| 1777104990 | 13.33° C | 100% | 997.1 hPa | 0 mm | - | - | - |
| 1777104708 | 12.78° C | 100% | 997.1 hPa | 0 mm | - | - | - |
| 1777104384 | 12.22° C | 100% | 997.1 hPa | 0 mm | - | - | - |
| 1777103777 | 11.11° C | 100% | 997.2 hPa | 0 mm | - | - | - |
| 1777103483 | 11.11° C | 100% | 997.2 hPa | 0 mm | - | - | - |
| 1777102876 | 10.56° C | 100% | 997.1 hPa | 0 mm | - | - | - |
| 1777102564 | 10.56° C | 100% | 997 hPa | 0 mm | - | - | - |
| 1777102269 | 10° C | 100% | 997.1 hPa | 0 mm | - | - | - |
| 1777101984 | 10° C | 100% | 997 hPa | 0 mm | - | - | - |
| 1777101664 | 10° C | 100% | 997 hPa | 0 mm | - | - | - |
* Rain since midnight (hover to see other rain measurements)
** Current wind speed in m/s (hover to see current wind gust speed)